Simultaneous Nadir Overpasses (SNOs) Predictions

Prediction of SNOs between GOES-15 and METOP-B Satellite Orbit:

Table of predicted SNOs for the next 14.0 days since TLE Epoch: 12/17/2022
Index Date Time (GOES-15) GOES-15 Lat,Lon METOP-B Lat,Lon Distance(km) Time Diff (sec)
1 12/18/2022 06:12:40 0.10,-127.34 -0.53,-130.18 323.67 80
2 12/19/2022 05:49:21 0.11,-127.30 0.55,-125.18 240.29 80
3 12/20/2022 18:08:13 -0.10,-127.21 0.47,-129.75 289.17 80
4 12/21/2022 17:50:14 -0.10,-127.16 -0.62,-124.75 274.71 80
5 12/23/2022 06:09:14 0.09,-127.10 -0.43,-129.34 255.16 80
6 12/24/2022 05:45:56 0.09,-127.05 0.72,-124.35 307.82 80
7 12/25/2022 18:04:47 -0.08,-126.94 0.35,-128.90 223.39 80
8 12/26/2022 17:46:48 -0.08,-126.89 -0.74,-123.90 339.91 80
9 12/28/2022 06:05:48 0.07,-126.83 -0.30,-128.49 189.93 80
10 12/29/2022 05:42:28 0.07,-126.77 0.79,-123.50 372.96 80
11 12/30/2022 18:01:20 -0.07,-126.66 0.27,-128.05 158.75 80
